EW3804 Weather Reports


time (UTC)temp
F
wind
direction
speed
knots
gust
knots
rain 1hr
in
rain 24hr
in
rain mn
in
humidity
%
barometer
mb
20260906033049 84 127 6.1 9.6 0.00 0.00 0.00 69 1004.9
20260906031540 85 143 5.2 11.3 0.00 0.00 0.00 68 1004.9
20260906030037 85 124 2.6 8.7 0.00 0.00 0.00 67 1004.8
20260906024533 86 106 2.6 7.0 0.00 0.00 0.00 65 1004.6
20260906023027 87 153 3.5 7.8 0.00 0.00 0.00 64 1004.1
20260906021523 87 119 5.2 10.4 0.00 0.00 0.00 62 1003.9
20260906020019 88 110 5.2 10.4 0.00 0.00 0.00 59 1003.9
20260906014522 89 103 5.2 10.4 0.00 0.00 0.00 57 1003.7
20260906013010 90 108 8.7 13.9 0.00 0.00 0.00 56 1003.6
20260906011505 90 94 6.1 12.2 0.00 0.00 0.00 53 1003.4
20260906010101 91 107 6.1 10.4 0.00 0.00 0.00 53 1003.1
20260906004608 91 125 4.3 12.2 0.00 0.00 0.00 54 1003.0
20260906003054 92 118 7.0 12.2 0.00 0.00 0.00 54 1003.1
20260906001547 93 123 6.1 13.9 0.00 0.00 0.00 52 1003.2
20260906000043 93 106 7.0 14.8 0.00 0.00 0.00 51 1003.0
20260905234550 94 99 7.0 14.8 0.00 0.00 0.00 52 1002.9
20260905233034 96 110 8.7 13.0 0.00 0.00 0.00 48 1002.7
20260905231529 97 91 5.2 8.7 0.00 0.00 0.00 41 1002.6
20260905230024 98 23 6.1 9.6 0.00 0.00 0.00 42 1002.6
20260905224520 98 136 2.6 7.8 0.00 0.00 0.00 40 1002.6
20260905223015 99 157 4.3 7.0 0.00 0.00 0.00 41 1002.5
20260905221514 99 147 2.6 7.8 0.00 0.00 0.00 41 1002.5
20260905220007 98 110 0.0 5.2 0.00 0.00 0.00 41 1002.4
20260905214501 98 145 2.6 6.1 0.00 0.00 0.00 40 1002.6
20260905213057 97 140 1.7 7.8 0.00 0.00 0.00 42 1002.7
20260905211553 98 104 2.6 8.7 0.00 0.00 0.00 41 1003.0
20260905210049 98 123 5.2 8.7 0.00 0.00 0.00 41 1003.2
20260905204545 100 101 1.7 6.1 0.00 0.00 0.00 40 1003.5
20260905203039 99 259 2.6 6.1 0.00 0.00 0.00 40 1003.6
20260905201537 96 100 0.0 5.2 0.00 0.00 0.00 43 1003.7
20260905200039 94 125 0.9 6.1 0.00 0.00 0.00 47 1003.9
20260905194526 96 118 4.3 9.6 0.00 0.00 0.00 45 1004.2
20260905193023 97 120 2.6 7.0 0.00 0.00 0.00 45 1004.4
20260905191515 96 112 4.3 7.8 0.00 0.00 0.00 46 1004.8
20260905190035 95 141 0.0 11.3 0.00 0.00 0.00 48 1004.9
20260905184507 94 127 0.0 6.1 0.00 0.00 0.00 49 1005.3
20260905183002 96 133 5.2 10.4 0.00 0.00 0.00 47 1005.5
20260905181603 95 181 1.7 7.0 0.00 0.00 0.00 47 1005.7
20260905180054 94 273 0.9 7.0 0.00 0.00 0.00 50 1006.0
20260905174548 94 306 1.7 9.6 0.00 0.00 0.00 50 1006.3
20260905173045 93 141 3.5 10.4 0.00 0.00 0.00 52 1006.5
20260905171541 92 159 2.6 8.7 0.00 0.00 0.00 54 1006.6
20260905170041 92 234 2.6 7.8 0.00 0.00 0.00 55 1006.7
20260905164536 91 111 1.7 7.8 0.00 0.00 0.00 56 1006.8
20260905163027 91 265 1.7 8.7 0.00 0.00 0.00 56 1006.9
20260905161523 91 150 2.6 7.0 0.00 0.00 0.00 58 1006.8
20260905160018 90 92 4.3 8.7 0.00 0.00 0.00 60 1006.9
20260905154513 89 197 4.3 7.8 0.00 0.00 0.00 63 1006.9
20260905153012 88 268 4.3 7.8 0.00 0.00 0.00 65 1007.0
20260905151504 87 194 4.3 9.6 0.00 0.00 0.00 69 1006.9
20260905150100 86 200 1.7 8.7 0.00 0.00 0.00 73 1007.0
20260905144555 85 169 2.6 7.0 0.00 0.00 0.00 76 1006.8
20260905143051 84 184 2.6 7.0 0.00 0.00 0.00 79 1006.8
20260905141553 82 152 0.9 6.1 0.00 0.00 0.00 82 1006.9
20260905140042 80 118 0.9 3.5 0.00 0.00 0.00 85 1006.9
20260905134537 79 107 0.0 0.9 0.00 0.02 0.00 86 1006.7
20260905133034 78 114 0.0 1.7 0.00 0.02 0.00 86 1006.7
20260905131536 77 108 0.0 1.7 0.00 0.02 0.00 88 1006.7
20260905130035 77 149 0.0 0.0 0.00 0.02 0.00 89 1006.6
20260905124519 0 0.0 0.0 0.00 0.02 0.00 1006.3
20260905123015 0 0.0 0.0 0.00 0.02 0.00 1006.0
20260905121510 0 0.0 0.0 0.00 0.02 0.00 1005.9
20260905120006 0 0.0 0.0 0.00 0.02 0.00 1005.8
20260905114501 0 0.0 0.0 0.00 0.02 0.00 1005.7
20260905113057 0 0.0 0.0 0.00 0.02 0.00 1005.6
20260905111608 0 0.0 0.0 0.00 0.02 0.00 1005.6
20260905110055 0 0.0 0.0 0.00 0.02 0.00 1005.7
20260905104544 0 0.0 0.0 0.00 0.02 0.00 1005.6
20260905103042 0 0.0 0.0 0.00 0.02 0.00 1005.5
20260905101544 0 0.0 0.0 0.00 0.02 0.00 1005.5
20260905100035 0 0.0 0.0 0.00 0.02 0.00 1005.5
20260905094530 0 0.0 0.0 0.00 0.02 0.00 1005.5
20260905093026 77 123 0.9 2.6 0.00 0.02 0.00 87 1005.3
20260905091525 77 146 0.0 0.9 0.00 0.02 0.00 86 1005.5
20260905090024 77 141 0.9 1.7 0.00 0.02 0.00 86 1005.4
20260905084527 77 143 0.0 0.9 0.00 0.02 0.00 85 1005.3
20260905083022 77 166 0.0 0.0 0.00 0.02 0.00 85 1005.3
20260905081520 77 166 0.0 0.0 0.00 0.02 0.00 85 1005.3
20260905080018 78 146 0.0 0.0 0.00 0.02 0.00 84 1005.4
20260905074515 78 131 0.9 2.6 0.00 0.02 0.00 84 1005.5
20260905073018 78 155 1.7 2.6 0.00 0.02 0.00 83 1005.7
20260905071526 79 143 0.9 2.6 0.00 0.02 0.00 83 1005.6
20260905070011 79 129 0.9 2.6 0.00 0.02 0.00 83 1005.6
20260905064510 79 159 0.0 1.7 0.00 0.02 0.00 82 1005.6
20260905063010 79 153 0.9 2.6 0.00 0.02 0.00 82 1005.8
20260905061510 79 208 0.9 4.3 0.00 0.02 0.00 82 1005.8
20260905060007 79 160 0.0 3.5 0.00 0.02 0.00 81 1005.7
20260905054516 80 163 2.6 4.3 0.00 0.02 0.00 80 1005.6
20260905053003 79 147 0.0 1.7 0.00 0.02 0.00 80 1005.7
20260905051503 80 141 0.0 1.7 0.00 0.02 0.00 80 1005.7
20260905050101 80 134 0.0 0.0 0.00 0.02 0.00 79 1005.8
20260905044556 81 134 0.0 0.9 0.00 0.02 0.02 78 1005.9
20260905043052 81 129 0.9 2.6 0.00 0.02 0.02 78 1005.8
20260905041548 81 139 0.0 0.9 0.00 0.02 0.02 77 1005.8
20260905040043 82 131 0.9 3.5 0.00 0.02 0.02 76 1005.8
20260905034538 82 137 1.7 3.5 0.00 0.02 0.02 75 1005.8